Regional Weather Roundup
Issued by NWS

Home | Current Version | Previous Version | Graphics & Text | Print | Product List | Glossary On
Versions: 1 2 3 4 5 6 7 8 9 10 11 12 13 14 15 16 17 18 19 20 21 22 23 24 25 26 27 28 29 30 31 32 33 34 35 36 37 38 39 40 41 42 43 44 45 46 47 48 49 50
263
ASUS43 KMPX 060110
RWRMN
WEATHER ROUNDUP FOR MINNESOTA
NATIONAL WEATHER SERVICE TWIN CITIES/CHANHASSEN MN
700 PM CST FRI FEB 05 2016


NOTE: "FAIR" INDICATES FEW OR NO CLOUDS BELOW 12,000 FEET WITH NO
SIGNIFICANT WEATHER AND/OR OBSTRUCTIONS TO VISIBILITY. N/A MEANS
CURRENT SKY AND/OR WEATHER CONDITIONS ARE NOT AVAILABLE.

MNZ060>063-068>070-060200-
   Twin Cities Metro

CITY           SKY/WX    TMP DP  RH WIND       PRES   REMARKS
TWIN CITIES    CLOUDY    25  19  78 S12       30.21S WCI  14
ST PAUL        CLOUDY    25  19  78 S8        30.23S WCI  16
CRYSTAL        CLOUDY    26  19  74 SW7       30.20R WCI  18
BLAINE         CLOUDY    27  21  80 SW12      30.19R WCI  16
LAKEVILLE      FLURRIES  21  21 100 S3        30.22R
EDEN PRAIRIE   CLOUDY    25  19  78 S14       30.19S WCI  13
SOUTH ST PAUL  CLOUDY    26  20  77 SW8       30.23R WCI  17
LAKE ELMO      CLOUDY    27  19  74 S12       30.22S WCI  16
$$
MNZ001>005-007-008-013>017-022>024-027-028-060200-
   Northwest Minnesota

CITY           SKY/WX    TMP DP  RH WIND       PRES   REMARKS
BEMIDJI        CLEAR     20  17  87 W5        30.09F WCI  13
HALLOCK        CLOUDY    14  12  92 S8        30.11S WCI   3
ROSEAU         CLOUDY    21  16  79 SW5       30.09S WCI  15
WARROAD        CLOUDY    19  16  86 SW3       30.09S
THIEF RVR FALL CLEAR     16  12  86 CALM      30.12S
CROOKSTON      CLOUDY    16  12  86 SE3       30.14F
FOSSTON        CLEAR     10   9  92 S6        30.12S FOG     WCI   1
DETROIT LAKES  CLOUDY    25  23  93 CALM      30.13S
MOORHEAD       CLEAR     21  19  93 CALM      30.16R
PARK RAPIDS    MOCLDY    23  18  81 W8        30.10S WCI  14
MAHNOMEN       FAIR      16  15  93 SW3       30.12S FOG
$$
MNZ006-009>011-018-025>026-060200-
   North Central Minnesota

CITY           SKY/WX    TMP DP  RH WIND       PRES   REMARKS
BAUDETTE       CLOUDY    22  13  68 W3        30.06F
FLAG ISLAND    CLOUDY    19  16  86 CALM      30.07R
INTL FALLS     CLOUDY    23  15  71 W6        30.06F WCI  16
WASKISH        CLOUDY    19  16  86 SW3       30.09S
LONGVILLE      CLOUDY    27  19  74 SW3       30.10F
GRAND RAPIDS   CLOUDY    25  16  68 S5        30.08F WCI  19
CRANE LAKE     CLOUDY    21  14  73 S2        30.08F
ORR            CLOUDY    23  14  68 CALM      30.04S
COOK           CLOUDY    25  18  74 W6        30.07S WCI  18
WALKER         CLOUDY    25  19  80 W3        30.09S
$$
MNZ012-019>021-037-060200-
   Northeast Minnesota

CITY           SKY/WX    TMP DP  RH WIND       PRES   REMARKS
DULUTH         CLOUDY    24  13  62 SW14      30.09S WCI  12
ELY            CLOUDY    21  14  73 W3        30.06S
HIBBING        CLOUDY    24  16  71 SW5       30.07F WCI  18
EVELETH        CLOUDY    27  14  59 SW6       30.08F WCI  20
DULUTH HARBOR  CLOUDY    28  16  59 SW13      30.15R WCI  18
TWO HARBORS    CLOUDY    28  16  59 SW13      30.08S WCI  18
SILVER BAY     CLOUDY    27  14  59 SW5       30.07S WCI  21
GRAND MARAIS     N/A     25  17  72 NW3       30.10F
G MARAIS ARPRT CLOUDY    18  12  79 SW3       30.03F
$$
MNZ029>031-032-039>041-046>048-054>057-064-060200-
   West Central Minnesota

CITY           SKY/WX    TMP DP  RH WIND       PRES   REMARKS
FERGUS FALLS   CLOUDY    23  19  86 CALM      30.17F
WHEATON        CLEAR     27  25  93 W3        30.19R
MORRIS         MOCLDY    27  25  93 CALM      30.15R
ALEXANDRIA     CLOUDY    25  21  85 W6        30.14R WCI  18
ELBOW LAKE     CLOUDY    22  21  97 CALM      30.16R FOG
WADENA         CLOUDY    25  19  80 W7        30.12S WCI  17
GLENWOOD       CLOUDY    25  21  86 SW9       30.14R WCI  15
APPLETON       PTCLDY    28  25  86 CALM      30.17S
BENSON         CLOUDY    27  23  86 CALM      30.17R
ORTONVILLE     CLEAR     27  21  80 SW3       30.16R
MADISON        MOCLDY    27  23  86 CALM      30.18R
WILLMAR        CLOUDY    27  23  86 SW6       30.17F WCI  20
$$
MNZ033>034-036-042>043-049>051-058-059-060200-
   Central Minnesota

CITY           SKY/WX    TMP DP  RH WIND       PRES   REMARKS
ST CLOUD       CLOUDY    24  17  74 S7        30.16F WCI  16
SAUK CENTRE    CLOUDY    25  21  85 CALM      30.14S
PAYNESVILLE    CLOUDY    25  20  83 SW5       30.16S WCI  19
AITKIN         CLOUDY    28  14  54 S8        30.10S WCI  20
PINE RIVER     CLOUDY    27  19  74 CALM      30.14S
BRAINERD       CLOUDY    24  16  71 SW8       30.13R WCI  15
STAPLES        CLOUDY    25  19  80 W7        30.13R WCI  17
LONG PRAIRIE   CLOUDY    25  21  86 SW5       30.14R WCI  19
LITTLE FALLS   CLOUDY    25  18  74 S3        30.15S
LITCHFIELD     MOCLDY    27  25  93 CALM      30.17S
BUFFALO        CLOUDY    25  20  83 S6        30.19F WCI  18
MAPLE LAKE     CLOUDY    26  22  87 S6        30.19S WCI  19
$$
MNZ037-044-045-052-053-060200-
   East Central Minnesota

CITY           SKY/WX    TMP DP  RH WIND       PRES   REMARKS
PRINCETON      CLOUDY    27  19  74 S6        30.17S WCI  20
MORA           CLOUDY    27  19  74 SW9       30.17F WCI  17
CAMBRIDGE      CLOUDY    27  18  69 S3        30.16F
RUSH CITY      CLOUDY    27  18  71 SW9       30.18F WCI  17
MOOSE LAKE     CLOUDY    27  16  63 SW13      30.11F WCI  16
HINCKLEY       CLOUDY    27  19  74 SW8       30.16S WCI  18
CLOQUET        CLOUDY    25  12  58 SW8       30.11S WCI  16
MCGREGOR       CLOUDY    27  18  69 SW8       30.12S WCI  18
$$
MNZ071>073-080-081-089-090-097-098-060200-
   Southwest Minnesota

CITY           SKY/WX    TMP DP  RH WIND       PRES   REMARKS
MONTEVIDEO     CLOUDY    27  21  80 CALM      30.19R
GRANITE FALLS  CLOUDY    28  25  86 W6        30.19S WCI  22
CANBY          PTCLDY    28  24  87 CALM      30.18S
MARSHALL       CLOUDY    28  24  85 W7        30.18R WCI  21
REDWOOD FALLS  CLOUDY    26  23  88 SW7       30.18S WCI  18
OLIVIA         CLOUDY    28  25  86 SW5       30.16S WCI  23
PIPESTONE        N/A     28  21  74 W6        30.16R WCI  22
WINDOM         CLOUDY    27  25  93 SW12      30.18R FOG     WCI  16
WORTHINGTON    CLOUDY    27  21  80 SW13      30.18S WCI  16
JACKSON        CLOUDY    28  23  80 SW9       30.19R FOG     WCI  20
TRACY          CLOUDY    28  25  88 W5        30.18R WCI  23
SLAYTON        CLOUDY    27  27 100 W8        30.17S WCI  18
$$
MNZ065>067-074>077-082>085-091>093-060200-
   South Central Minnesota

CITY           SKY/WX    TMP DP  RH WIND       PRES   REMARKS
MANKATO        CLOUDY    25  19  80 SW9       30.21R WCI  15
NEW ULM        CLOUDY    25  23  93 S8        30.19F WCI  16
ST JAMES       FLURRIES  28  25  86 S6        30.22R WCI  22
FAIRMONT       CLOUDY    25  19  80 S15       30.18S WCI  12
GLENCOE        CLOUDY    26  24  91 S9        30.18F WCI  17
FARIBAULT      FLURRIES  25  19  80 S8        30.21S WCI  16
OWATONNA       CLOUDY    25  18  74 S13       30.20F WCI  13
WASECA         CLOUDY    23  19  86 S15       30.22S WCI  10
ALBERT LEA     CLOUDY    23  18  80 S10       30.22S WCI  12
$$
MNZ078>079-086>088-094>096-060200-
   Southeast Minnesota

CITY           SKY/WX    TMP DP  RH WIND       PRES   REMARKS
ROCHESTER      CLOUDY    20  14  77 S14       30.23S WCI   7
RED WING       FLURRIES  25  18  74 S6        30.23F WCI  18
STANTON        FLURRIES  25  20  82 S8        30.20F WCI  16
DODGE CENTER   CLOUDY    21  18  86 S14       30.21S WCI   8
WINONA         CLOUDY    25  14  63 CALM      30.29S
AUSTIN         CLOUDY    21  18  86 S9        30.23S WCI  11
PRESTON        CLOUDY    19  14  79 S8        30.24F WCI   9
$$
ABBREVIATIONS USED IN REMARKS
   TC - TEMPERATURES IN CELSIUS
  WCI - WIND CHILL INDEX
   HX - HEAT INDEX
  VSB - VISIBILITY
$$




USA.gov is the U.S. government's official web portal to all federal, state and local government web resources and services.